TimeCST,TemperatureF,Dew PointF,Humidity,Sea Level PressureIn,VisibilityMPH,Wind Direction,Wind SpeedMPH,Gust SpeedMPH,PrecipitationIn,Events,Conditions,WindDirDegrees,DateUTC
12:15 AM,33.8,32.0,93,30.36,10.0,Calm,Calm,-,N/A,,Clear,0,2012-11-17 06:15:00
12:35 AM,32.0,32.0,100,30.35,10.0,Calm,Calm,-,N/A,,Clear,0,2012-11-17 06:35:00
12:55 AM,33.8,33.8,100,30.36,7.0,Calm,Calm,-,N/A,,Clear,0,2012-11-17 06:55:00
1:15 AM,33.8,33.8,100,30.36,10.0,Calm,Calm,-,N/A,,Clear,0,2012-11-17 07:15:00
1:35 AM,32.0,32.0,100,30.36,10.0,Calm,Calm,-,N/A,,Clear,0,2012-11-17 07:35:00
1:55 AM,32.0,32.0,100,30.36,7.0,Calm,Calm,-,N/A,,Clear,0,2012-11-17 07:55:00
2:15 AM,32.0,32.0,100,30.37,10.0,Calm,Calm,-,N/A,,Clear,0,2012-11-17 08:15:00
2:35 AM,30.2,30.2,100,30.37,10.0,Calm,Calm,-,N/A,,Clear,0,2012-11-17 08:35:00
2:55 AM,30.2,30.2,100,30.36,5.0,Calm,Calm,-,N/A,,Clear,0,2012-11-17 08:55:00
3:15 AM,32.0,32.0,100,30.36,1.5,Calm,Calm,-,N/A,,Mist,0,2012-11-17 09:15:00
3:35 AM,32.0,32.0,100,30.36,10.0,Calm,Calm,-,N/A,,Clear,0,2012-11-17 09:35:00
3:55 AM,32.0,32.0,100,30.36,7.0,Calm,Calm,-,N/A,,Clear,0,2012-11-17 09:55:00
4:15 AM,30.2,30.2,100,30.37,7.0,Calm,Calm,-,N/A,,Clear,0,2012-11-17 10:15:00
4:35 AM,32.0,30.2,93,30.37,3.0,Calm,Calm,-,N/A,,Clear,0,2012-11-17 10:35:00
4:55 AM,30.2,30.2,100,30.37,1.2,Calm,Calm,-,N/A,,Mist,0,2012-11-17 10:55:00
5:15 AM,28.4,28.4,100,30.37,7.0,Calm,Calm,-,N/A,,Clear,0,2012-11-17 11:15:00
5:35 AM,30.2,30.2,100,30.37,4.0,Calm,Calm,-,N/A,,Clear,0,2012-11-17 11:35:00
6:55 AM,30.2,28.4,93,30.38,10.0,Calm,Calm,-,N/A,,Clear,0,2012-11-17 12:55:00
10:35 PM,37.4,32.0,81,30.30,10.0,Calm,Calm,-,N/A,,Clear,0,2012-11-18 04:35:00
10:55 PM,37.4,32.0,81,30.30,10.0,Calm,Calm,-,N/A,,Clear,0,2012-11-18 04:55:00
11:15 PM,35.6,32.0,87,30.29,10.0,Calm,Calm,-,N/A,,Clear,0,2012-11-18 05:15:00
11:35 PM,35.6,32.0,87,30.30,10.0,Calm,Calm,-,N/A,,Clear,0,2012-11-18 05:35:00
11:55 PM,35.6,32.0,87,30.30,10.0,Calm,Calm,-,N/A,,Clear,0,2012-11-18 05:55:00